WXM80 ListenWXM80 Stop

You find our weather info also at:

UK Metoffice

WeatherCloud

Weather Underground

Northeastern Weather Network

AWEKAS

Citizen Weather Observer Program (CWOP)

HAMweather, WeatherForYou, PWS Weather


Weather Underground History page Text

Daily Summary for July 1, 2017 Units:  Metric    English   Both
« Previous Day
Next Day »
Daily Weekly Monthly Yearly Custom
  High: Low: Average:
Temperature: 30.2 °C 21.4 °C 24.6 °C
Dew Point: 25.3 °C 19.8 °C 21.7 °C
Humidity: 93 % 69 % 84 %
Wind Speed: 13.2 km/h 0 km/h 2.6 km/h
Wind Gust: 25.9 km/h - -
Wind:- - South
Pressure: 1014.1 hPa 1009.7 hPa -
Precipitation: 0.25 mm    
Historical Graphs
 
 
Tabular Data for July 1, 2017
Time Temperature Dew Point Pressure Wind Wind Speed Wind Gust Humidity Rainfall Rate (Hourly)
00:02 23.6 °C 20.5 °C 1012.8 hPa South 1.8 km/h 5.6 km/h 83 % 0 mm
00:07 23.6 °C 20.6 °C 1012.8 hPa South 2.3 km/h 5.6 km/h 83 % 0 mm
00:12 23.6 °C 20.6 °C 1012.8 hPa South 4.5 km/h 7.4 km/h 83 % 0 mm
00:17 23.6 °C 20.6 °C 1012.8 hPa South 1.3 km/h 5.6 km/h 83 % 0 mm
00:22 23.6 °C 20.6 °C 1012.8 hPa SSW 1.1 km/h 5.6 km/h 83 % 0 mm
00:27 23.6 °C 20.6 °C 1012.8 hPa SSW 5 km/h 7.4 km/h 83 % 0 mm
00:32 23.6 °C 20.6 °C 1012.8 hPa SW 4.8 km/h 9.3 km/h 83 % 0 mm
00:37 23.6 °C 20.6 °C 1012.8 hPa SSW 0.2 km/h 3.7 km/h 83 % 0 mm
00:42 23.6 °C 20.6 °C 1012.8 hPa SW 3.2 km/h 5.6 km/h 83 % 0 mm
00:47 23.6 °C 20.6 °C 1012.8 hPa WSW 4.7 km/h 11.1 km/h 83 % 0 mm
00:52 23.6 °C 20.6 °C 1012.8 hPa SSW 5.5 km/h 13 km/h 83 % 0 mm
00:57 23.6 °C 20.5 °C 1013.1 hPa South 5.6 km/h 9.3 km/h 83 % 0 mm
00:58 23.6 °C 20.5 °C 1012.8 hPa SW 2.3 km/h 6.4 km/h 83 % 0 mm
01:03 23.6 °C 20.5 °C 1013.1 hPa SW 3.9 km/h 8 km/h 83 % 0 mm
01:08 23.5 °C 20.4 °C 1013.1 hPa South 2.7 km/h 5.6 km/h 83 % 0 mm
01:13 23.4 °C 20.4 °C 1013.1 hPa SSW 0.5 km/h 3.7 km/h 83 % 0 mm
01:18 23.4 °C 20.3 °C 1013.1 hPa South 0.6 km/h 4.8 km/h 83 % 0 mm
01:23 23.3 °C 20.3 °C 1013.1 hPa SSW 1.4 km/h 5.6 km/h 83 % 0 mm
01:28 23.2 °C 20.2 °C 1012.8 hPa SSW 0.5 km/h 3.7 km/h 83 % 0 mm
01:33 23.2 °C 20.1 °C 1012.8 hPa SSE 1.8 km/h 7.4 km/h 83 % 0 mm
01:38 23.1 °C 20 °C 1012.8 hPa SSW 0.6 km/h 1.9 km/h 83 % 0 mm
01:43 23 °C 20.2 °C 1012.8 hPa Calm   1.9 km/h 84 % 0 mm
01:48 22.9 °C 20.1 °C 1012.8 hPa Calm   1.9 km/h 84 % 0 mm
01:53 22.8 °C 20 °C 1012.8 hPa South 1.6 km/h 7.4 km/h 84 % 0 mm
01:58 22.7 °C 19.9 °C 1012.8 hPa SSE 0.3 km/h 1.9 km/h 84 % 0 mm
02:03 22.7 °C 20 °C 1012.8 hPa SSW 0.2 km/h 1.9 km/h 85 % 0 mm
02:08 22.6 °C 19.9 °C 1012.8 hPa SSW 0.6 km/h 1.9 km/h 85 % 0 mm
02:13 22.5 °C 19.8 °C 1012.4 hPa South 0.3 km/h 1.9 km/h 85 % 0 mm
02:18 22.4 °C 20 °C 1012.4 hPa SSE 1.4 km/h 5.6 km/h 86 % 0 mm
02:23 22.3 °C 19.9 °C 1012.4 hPa SE 1.6 km/h 6.4 km/h 86 % 0 mm
02:28 22.3 °C 19.9 °C 1012.4 hPa ESE 1.3 km/h 3.7 km/h 86 % 0 mm
02:33 22.3 °C 20 °C 1012.4 hPa SSE 0.5 km/h 1.9 km/h 87 % 0 mm
02:38 22.2 °C 19.9 °C 1012.4 hPa South 0.8 km/h 3.7 km/h 87 % 0 mm
02:43 22.2 °C 19.9 °C 1012.4 hPa SE 1.6 km/h 5.6 km/h 87 % 0 mm
02:48 22.2 °C 19.9 °C 1012.4 hPa SSE 0.2 km/h 1.9 km/h 87 % 0 mm
02:53 22.2 °C 20.1 °C 1012.1 hPa SSE 0.2 km/h 5.6 km/h 88 % 0 mm
02:58 22.2 °C 20.1 °C 1012.1 hPa SSW 2.1 km/h 5.6 km/h 88 % 0 mm
03:03 22.2 °C 20.1 °C 1012.4 hPa SSW 0.2 km/h 5.6 km/h 88 % 0 mm
03:05 22.2 °C 20.1 °C 1012.1 hPa SSW 0.5 km/h 5.6 km/h 88 % 0 mm
03:10 22.2 °C 20.1 °C 1012.1 hPa SE 1.8 km/h 3.7 km/h 88 % 0 mm
03:15 22.2 °C 20.1 °C 1012.1 hPa SSE 0.5 km/h 1.9 km/h 88 % 0 mm
03:21 22.2 °C 20.1 °C 1012.1 hPa SSE 0.2 km/h 1.9 km/h 88 % 0 mm
03:26 22.2 °C 20.1 °C 1012.1 hPa South 1.4 km/h 5.6 km/h 88 % 0 mm
03:31 22.1 °C 20.1 °C 1012.1 hPa Calm   6.4 km/h 88 % 0 mm
03:36 22.1 °C 20.1 °C 1012.1 hPa South 1.6 km/h 9.7 km/h 88 % 0 mm
03:41 22.1 °C 20.1 °C 1012.1 hPa SSW 1.6 km/h 11.3 km/h 88 % 0 mm
03:46 22.1 °C 20 °C 1012.1 hPa SSW 1.6 km/h 6.4 km/h 88 % 0 mm
03:51 22.1 °C 20 °C 1012.1 hPa SE 1.1 km/h 6.4 km/h 88 % 0 mm
03:56 22 °C 19.9 °C 1012.1 hPa South 1.6 km/h 6.4 km/h 88 % 0 mm
04:01 22 °C 19.9 °C 1012.1 hPa SE 0.6 km/h 1.9 km/h 88 % 0 mm
04:06 21.9 °C 19.9 °C 1012.1 hPa South 0.8 km/h 3.7 km/h 88 % 0 mm
04:11 21.9 °C 20.1 °C 1012.1 hPa SSW 0.5 km/h 5.6 km/h 89 % 0 mm
04:16 21.9 °C 20.1 °C 1012.1 hPa WSW 0.2 km/h 5.6 km/h 89 % 0 mm
04:21 21.9 °C 20.1 °C 1012.4 hPa Calm   1.6 km/h 89 % 0 mm
04:26 21.9 °C 20 °C 1012.4 hPa WSW 1.1 km/h 3.7 km/h 89 % 0 mm
04:31 21.8 °C 19.9 °C 1012.4 hPa SW 0.3 km/h 1.9 km/h 89 % 0 mm
04:36 21.8 °C 19.9 °C 1012.4 hPa SW 0.2 km/h 1.9 km/h 89 % 0 mm
04:41 21.8 °C 19.9 °C 1012.4 hPa SE 0.8 km/h 7.4 km/h 89 % 0 mm
04:46 21.8 °C 19.9 °C 1012.4 hPa ESE 1 km/h 3.7 km/h 89 % 0 mm
04:51 21.7 °C 19.8 °C 1012.4 hPa Calm   1.9 km/h 89 % 0 mm
04:56 21.7 °C 20 °C 1012.4 hPa SE 0.3 km/h 3.2 km/h 90 % 0 mm
05:01 21.7 °C 19.9 °C 1012.4 hPa SE 0.2 km/h 3.7 km/h 90 % 0 mm
05:06 21.7 °C 19.9 °C 1012.4 hPa Calm   1.6 km/h 90 % 0 mm
05:11 21.6 °C 19.9 °C 1012.8 hPa Calm   1.9 km/h 90 % 0 mm
05:16 21.6 °C 19.8 °C 1012.8 hPa WSW 0.2 km/h 3.7 km/h 90 % 0 mm
05:21 21.6 °C 19.8 °C 1012.8 hPa WSW 0.2 km/h 1.6 km/h 90 % 0 mm
05:26 21.5 °C 19.8 °C 1012.8 hPa Calm   1.9 km/h 90 % 0 mm
05:31 21.5 °C 19.8 °C 1013.1 hPa SSW 0.6 km/h 3.2 km/h 90 % 0 mm
05:36 21.4 °C 19.9 °C 1013.1 hPa WSW 0.2 km/h 1.9 km/h 91 % 0 mm
05:42 21.4 °C 19.9 °C 1013.1 hPa Calm   1.9 km/h 91 % 0 mm
05:47 21.4 °C 19.9 °C 1013.1 hPa Calm   5.6 km/h 91 % 0 mm
05:52 21.4 °C 20.1 °C 1013.1 hPa WNW 0.2 km/h 1.9 km/h 92 % 0 mm
05:57 21.4 °C 20.1 °C 1013.1 hPa Calm   1.9 km/h 92 % 0 mm
06:02 21.4 °C 20.1 °C 1013.1 hPa Calm     92 % 0 mm
06:07 21.5 °C 20.2 °C 1013.1 hPa Calm   1.9 km/h 92 % 0 mm
06:12 21.5 °C 20.2 °C 1013.1 hPa SSW 0.2 km/h 1.9 km/h 92 % 0 mm
06:22 21.6 °C 20.3 °C 1013.1 hPa Calm     92 % 0 mm
06:27 21.7 °C 20.3 °C 1013.4 hPa East 0.2 km/h 1.9 km/h 92 % 0 mm
06:32 21.8 °C 20.6 °C 1013.4 hPa East 1.3 km/h 8 km/h 93 % 0 mm
06:37 21.8 °C 20.5 °C 1013.4 hPa Calm   1.9 km/h 92 % 0 mm
06:42 21.9 °C 20.8 °C 1013.4 hPa SSW 0.2 km/h 1.9 km/h 93 % 0 mm
06:47 22.1 °C 20.7 °C 1013.4 hPa SSE 1.1 km/h 3.7 km/h 92 % 0 mm
06:52 22.2 °C 20.8 °C 1013.4 hPa Calm     92 % 0 mm
06:57 22.3 °C 20.9 °C 1013.4 hPa Calm     92 % 0 mm
07:02 22.5 °C 21.1 °C 1013.4 hPa SSE 0.2 km/h 1.6 km/h 92 % 0 mm
07:07 22.7 °C 21.3 °C 1013.4 hPa SE 0.2 km/h   92 % 0 mm
07:12 22.9 °C 21.3 °C 1013.8 hPa Calm   1.9 km/h 91 % 0 mm
07:17 23.1 °C 21.6 °C 1013.4 hPa SE 1.4 km/h 3.7 km/h 91 % 0 mm
07:22 23.3 °C 21.7 °C 1013.8 hPa Calm     91 % 0 mm
07:27 23.4 °C 21.7 °C 1013.8 hPa SE 0.5 km/h 1.9 km/h 90 % 0 mm
07:32 23.6 °C 21.7 °C 1013.4 hPa SE 2.4 km/h 6.4 km/h 89 % 0 mm
07:37 23.7 °C 21.7 °C 1013.4 hPa Calm   1.9 km/h 89 % 0 mm
07:42 23.8 °C 21.8 °C 1013.8 hPa SE 1.9 km/h 5.6 km/h 89 % 0 mm
07:47 23.8 °C 21.7 °C 1013.8 hPa Calm   3.7 km/h 88 % 0 mm
07:53 23.8 °C 21.7 °C 1013.8 hPa South 0.5 km/h 3.7 km/h 88 % 0 mm
07:58 23.8 °C 21.7 °C 1013.8 hPa South 1 km/h 4.8 km/h 88 % 0 mm
08:03 23.9 °C 21.8 °C 1013.8 hPa SE 1.9 km/h 5.6 km/h 88 % 0 mm
08:08 23.9 °C 21.8 °C 1013.8 hPa Calm   3.7 km/h 88 % 0 mm
08:13 23.9 °C 21.8 °C 1013.8 hPa SE 1 km/h 6.4 km/h 88 % 0 mm
08:18 24 °C 21.9 °C 1013.8 hPa SE 0.2 km/h   88 % 0 mm
08:23 24.1 °C 21.9 °C 1014.1 hPa WNW 1 km/h 5.6 km/h 88 % 0 mm
08:25 24.1 °C 22 °C 1013.8 hPa SE 2.3 km/h 7.4 km/h 88 % 0 mm
08:30 24.2 °C 21.9 °C 1013.8 hPa SSE 1.4 km/h 3.7 km/h 87 % 0 mm
08:35 24.2 °C 22.1 °C 1013.8 hPa SE 1.9 km/h 9.7 km/h 88 % 0 mm
08:40 24.3 °C 22 °C 1013.8 hPa SE 0.6 km/h 5.6 km/h 87 % 0 mm
08:45 24.4 °C 22.1 °C 1014.1 hPa SSE 2.7 km/h 9.3 km/h 87 % 0 mm
08:50 24.4 °C 22.1 °C 1013.8 hPa SSE 6.6 km/h 11.1 km/h 87 % 0 mm
08:55 24.5 °C 22 °C 1013.8 hPa SSE 5.5 km/h 14.8 km/h 86 % 0 mm
09:00 24.6 °C 22.1 °C 1013.8 hPa SE 6.9 km/h 18.5 km/h 86 % 0 mm
09:05 24.6 °C 22.1 °C 1013.8 hPa SE 3.1 km/h 9.3 km/h 86 % 0 mm
09:11 24.6 °C 22.1 °C 1013.8 hPa SE 1 km/h 9.3 km/h 86 % 0 mm
09:16 24.6 °C 22.3 °C 1013.4 hPa SE 3.1 km/h 5.6 km/h 87 % 0 mm
09:21 24.7 °C 22.4 °C 1013.4 hPa Calm   3.7 km/h 87 % 0 mm
09:26 24.8 °C 22.5 °C 1013.4 hPa SSE 9.3 km/h 16.7 km/h 87 % 0 mm
09:30 24.9 °C 22.4 °C 1013.4 hPa SSE 1.4 km/h 14.8 km/h 86 % 0 mm
09:36 25.1 °C 22.6 °C 1013.4 hPa SE 9.7 km/h 19.3 km/h 86 % 0 mm
09:41 25.1 °C 22.6 °C 1013.1 hPa SSE 1.6 km/h 9.7 km/h 86 % 0 mm
09:46 25.2 °C 22.5 °C 1013.1 hPa SSE 8 km/h 19.3 km/h 85 % 0 mm
09:51 25.3 °C 22.6 °C 1013.1 hPa SSE 1.6 km/h 14.5 km/h 85 % 0 mm
09:56 25.4 °C 22.7 °C 1013.1 hPa SSE 3.2 km/h 11.3 km/h 85 % 0 mm
10:01 25.3 °C 22.4 °C 1013.1 hPa ESE 9.7 km/h 16.7 km/h 84 % 0 mm
10:06 25.3 °C 22.6 °C 1012.8 hPa SE 2.3 km/h 11.1 km/h 85 % 0 mm
10:11 25.3 °C 22.6 °C 1013.1 hPa SE 7.2 km/h 20.9 km/h 85 % 0 mm
10:16 25.3 °C 22.4 °C 1013.1 hPa South 8.5 km/h 14.8 km/h 84 % 0 mm
10:21 25.3 °C 22.6 °C 1012.8 hPa South 1.1 km/h 3.7 km/h 85 % 0 mm
10:26 25.3 °C 22.6 °C 1012.8 hPa SSE 3.1 km/h 5.6 km/h 85 % 0 mm
10:31 25.3 °C 22.6 °C 1012.8 hPa SSE 1 km/h 5.6 km/h 85 % 0 mm
10:36 25.4 °C 22.7 °C 1012.8 hPa SSE 6.4 km/h 18.5 km/h 85 % 0 mm
10:41 25.7 °C 22.8 °C 1012.8 hPa SSE 10.1 km/h 20.4 km/h 84 % 0 mm
10:46 25.9 °C 23 °C 1012.8 hPa South 1.9 km/h 5.6 km/h 84 % 0 mm
10:51 26.1 °C 23.2 °C 1012.8 hPa SSE 4.5 km/h 11.1 km/h 84 % 0 mm
10:56 26.3 °C 23.3 °C 1012.8 hPa South 10.1 km/h 25.9 km/h 84 % 0 mm
11:01 26.4 °C 23.3 °C 1012.8 hPa SSW 3.1 km/h 9.3 km/h 83 % 0 mm
11:06 26.6 °C 23.4 °C 1012.8 hPa SSE 1.9 km/h 9.3 km/h 83 % 0 mm
11:11 26.8 °C 23.4 °C 1012.4 hPa SSW 0.5 km/h 1.9 km/h 82 % 0 mm
11:16 27 °C 23.4 °C 1012.4 hPa South 9.2 km/h 14.8 km/h 81 % 0 mm
11:21 27.3 °C 24.1 °C 1012.4 hPa SSE 3.5 km/h 11.1 km/h 83 % 0 mm
11:26 27.5 °C 23.9 °C 1012.4 hPa South 1.3 km/h 5.6 km/h 81 % 0 mm
11:31 27.9 °C 24.4 °C 1012.4 hPa South 3.5 km/h 4.8 km/h 81 % 0 mm
11:36 28.1 °C 23.7 °C 1012.4 hPa Calm   9.3 km/h 77 % 0 mm
11:41 28.3 °C 23.7 °C 1012.1 hPa SE 3.2 km/h 13 km/h 76 % 0 mm
11:46 28.7 °C 24.5 °C 1012.4 hPa SE 4.3 km/h 9.7 km/h 78 % 0 mm
11:51 29.1 °C 25.3 °C 1012.4 hPa SE 0.3 km/h 4.8 km/h 80 % 0 mm
11:56 29 °C 23.7 °C 1012.4 hPa SSE 1 km/h 5.6 km/h 73 % 0 mm
12:01 29.1 °C 24.2 °C 1012.1 hPa SW 1 km/h 4.8 km/h 75 % 0 mm
12:06 29.2 °C 24.3 °C 1012.1 hPa SW 4 km/h 7.4 km/h 75 % 0 mm
12:11 29.4 °C 24.1 °C 1012.4 hPa SE 2.3 km/h 3.7 km/h 73 % 0 mm
12:16 29.4 °C 24.1 °C 1012.1 hPa South 2.1 km/h 7.4 km/h 73 % 0 mm
12:21 29.5 °C 23.9 °C 1012.1 hPa SSE 1.1 km/h 1.9 km/h 72 % 0 mm
12:26 29.5 °C 24.2 °C 1012.1 hPa SSW 2.4 km/h 7.4 km/h 73 % 0 mm
12:31 29.4 °C 23.9 °C 1012.1 hPa SE 1.9 km/h 5.6 km/h 72 % 0 mm
12:36 29.3 °C 23.9 °C 1012.1 hPa South 1.4 km/h 5.6 km/h 73 % 0 mm
12:41 29.2 °C 23.8 °C 1012.1 hPa ESE 7.9 km/h 17.7 km/h 73 % 0 mm
12:46 29 °C 23.7 °C 1012.1 hPa South 1.9 km/h 14.8 km/h 73 % 0 mm
12:51 29.1 °C 24 °C 1012.1 hPa SSW 4.7 km/h 8 km/h 74 % 0 mm
12:56 29.3 °C 24 °C 1012.1 hPa SSE 3.9 km/h 14.8 km/h 73 % 0 mm
13:01 29.4 °C 23.9 °C 1012.1 hPa SSW 2.4 km/h 5.6 km/h 72 % 0 mm
13:06 29.4 °C 24.1 °C 1011.7 hPa SW 2.4 km/h 5.6 km/h 73 % 0 mm
13:11 29.6 °C 24.3 °C 1011.7 hPa SE 3.2 km/h 5.6 km/h 73 % 0 mm
13:16 29.7 °C 23.9 °C 1011.7 hPa South 5 km/h 16.7 km/h 71 % 0 mm
13:17 29.7 °C 23.9 °C 1011.7 hPa SW 5 km/h 16.7 km/h 71 % 0 mm
13:22 29.9 °C 24.3 °C 1011.4 hPa South 7.2 km/h 11.1 km/h 72 % 0 mm
13:27 30 °C 23.7 °C 1011.4 hPa South 4.2 km/h 7.4 km/h 69 % 0 mm
13:32 30.1 °C 24.1 °C 1011.4 hPa SSE 3.9 km/h 9.3 km/h 70 % 0 mm
13:37 30.2 °C 23.8 °C 1011.4 hPa SSW 2.6 km/h 5.6 km/h 69 % 0 mm
13:42 30.1 °C 23.8 °C 1011.1 hPa SSW 9.2 km/h 22.2 km/h 69 % 0 mm
13:47 29.8 °C 23.6 °C 1011.4 hPa South 3.4 km/h 18.5 km/h 69 % 0 mm
13:52 29.6 °C 23.6 °C 1011.4 hPa South 5 km/h 11.1 km/h 70 % 0 mm
13:57 29.6 °C 23.9 °C 1011.4 hPa SSW 7.6 km/h 14.8 km/h 72 % 0 mm
14:02 29.5 °C 23.9 °C 1011.4 hPa SSE 10.8 km/h 25.9 km/h 72 % 0 mm
14:07 29.1 °C 23.5 °C 1011.1 hPa SE 1.9 km/h 9.3 km/h 72 % 0 mm
14:12 28.8 °C 23.4 °C 1011.1 hPa WNW 2.1 km/h 6.4 km/h 73 % 0 mm
14:17 28.3 °C 23.3 °C 1011.1 hPa SSE 8.2 km/h 18.5 km/h 74 % 0 mm
14:22 27.9 °C 23.3 °C 1011.1 hPa SW 3.9 km/h 7.4 km/h 76 % 0 mm
14:27 27.8 °C 23.2 °C 1010.7 hPa South 2.3 km/h 6.4 km/h 76 % 0 mm
14:32 27.4 °C 23.1 °C 1011.1 hPa SSE 2.7 km/h 7.4 km/h 77 % 0 mm
14:37 27.6 °C 23.6 °C 1010.7 hPa SE 13.2 km/h 19.3 km/h 79 % 0 mm
14:42 27.7 °C 23.3 °C 1010.7 hPa SSE 2.3 km/h 9.3 km/h 77 % 0 mm
14:47 27.8 °C 23.4 °C 1010.7 hPa SSE 3.5 km/h 5.6 km/h 77 % 0 mm
14:52 28 °C 23.8 °C 1010.4 hPa SSW 0.8 km/h 1.9 km/h 78 % 0 mm
14:57 28.3 °C 23.7 °C 1010.4 hPa SE 2.3 km/h 6.4 km/h 76 % 0 mm
15:02 28.5 °C 23.4 °C 1010.4 hPa SSE 10 km/h 25.9 km/h 74 % 0 mm
15:07 28.6 °C 23.2 °C 1010.7 hPa SE 9 km/h 16.7 km/h 73 % 0 mm
15:12 28.4 °C 23.3 °C 1010.4 hPa SE 2.3 km/h 5.6 km/h 74 % 0 mm
15:17 28.4 °C 23.3 °C 1010.4 hPa South 0.3 km/h 1.9 km/h 74 % 0 mm
15:22 28.3 °C 23.4 °C 1010.4 hPa South 2.4 km/h 5.6 km/h 75 % 0 mm
15:27 28.1 °C 23.3 °C 1010.7 hPa SSW 5.5 km/h 5.6 km/h 75 % 0 mm
15:32 27.9 °C 23.3 °C 1010.7 hPa South 2.4 km/h 8 km/h 76 % 0 mm
15:37 27.6 °C 23 °C 1010.7 hPa SW 2.4 km/h 8 km/h 76 % 0 mm
15:42 27.4 °C 22.8 °C 1010.4 hPa SSE 0.2 km/h 5.6 km/h 76 % 0 mm
15:47 27.3 °C 22.9 °C 1010.7 hPa SSE 3.7 km/h 6.4 km/h 77 % 0 mm
15:52 27.1 °C 22.7 °C 1010.7 hPa SSE 4.3 km/h 7.4 km/h 77 % 0 mm
15:57 26.9 °C 22.7 °C 1010.7 hPa SE 1.8 km/h 6.4 km/h 78 % 0 mm
16:03 26.8 °C 22.9 °C 1010.7 hPa SSW 5.6 km/h 11.1 km/h 79 % 0 mm
16:08 26.7 °C 22.7 °C 1010.7 hPa South 6.1 km/h 11.1 km/h 79 % 0 mm
16:13 26.6 °C 22.8 °C 1010.7 hPa ESE 3.9 km/h 9.3 km/h 80 % 0 mm
16:18 26.4 °C 22.7 °C 1010.4 hPa South 4.7 km/h 4.8 km/h 80 % 0 mm
16:23 26.3 °C 22.6 °C 1010.4 hPa SW 9.2 km/h 11.3 km/h 80 % 0 mm
16:28 26.2 °C 22.7 °C 1010.4 hPa South 2.6 km/h 8 km/h 81 % 0 mm
16:33 26.2 °C 22.7 °C 1010.4 hPa South 5 km/h 11.1 km/h 81 % 0 mm
16:38 26 °C 22.5 °C 1010.4 hPa South 3.4 km/h 7.4 km/h 81 % 0 mm
16:43 25.7 °C 22.4 °C 1010.4 hPa SE 2.3 km/h 7.4 km/h 82 % 0 mm
16:48 25.6 °C 22.4 °C 1010.4 hPa SSE 2.3 km/h 7.4 km/h 83 % 0 mm
16:53 25.4 °C 22.5 °C 1010 hPa SSW 0.2 km/h 5.6 km/h 84 % 0.25 mm
16:58 25.2 °C 22.5 °C 1010 hPa SSW 4.2 km/h 9.3 km/h 85 % 0.25 mm
17:03 25.1 °C 22.6 °C 1010 hPa SSE 3.5 km/h 7.4 km/h 86 % 0.25 mm
17:08 24.9 °C 22.8 °C 1010 hPa SSE 5.3 km/h 9.7 km/h 88 % 0.25 mm
17:13 24.9 °C 22.8 °C 1010 hPa South 4.7 km/h 9.3 km/h 88 % 0.25 mm
17:18 24.9 °C 22.6 °C 1010 hPa SSW 2.9 km/h 13 km/h 87 % 0.25 mm
17:23 24.9 °C 22.4 °C 1010 hPa SSW 3.7 km/h 11.3 km/h 86 % 0.25 mm
17:28 24.9 °C 22.4 °C 1009.7 hPa South 5.6 km/h 11.1 km/h 86 % 0.25 mm
17:33 24.9 °C 22.4 °C 1010 hPa South 3.7 km/h 7.4 km/h 86 % 0.25 mm
17:38 25 °C 22.5 °C 1009.7 hPa SW 5.5 km/h 9.3 km/h 86 % 0.25 mm
17:43 25.1 °C 22.3 °C 1009.7 hPa South 3.7 km/h 13 km/h 85 % 0.25 mm
17:48 25.1 °C 22.3 °C 1010 hPa South 3.1 km/h 6.4 km/h 85 % 0.25 mm
17:53 25.1 °C 22.4 °C 1010 hPa South 6.4 km/h 11.1 km/h 85 % 0 mm
17:58 25.1 °C 22.4 °C 1010 hPa South 5 km/h 11.1 km/h 85 % 0 mm
18:03 25.1 °C 22.2 °C 1010 hPa SE 3.5 km/h 5.6 km/h 84 % 0 mm
18:09 25.1 °C 22.3 °C 1010 hPa SSW 6.6 km/h 11.1 km/h 85 % 0 mm
18:13 25 °C 22.3 °C 1009.7 hPa South 3.9 km/h 8 km/h 85 % 0 mm
18:18 24.9 °C 22.2 °C 1009.7 hPa SSE 0.8 km/h 11.1 km/h 85 % 0 mm
18:24 24.9 °C 22.2 °C 1009.7 hPa South 4.2 km/h 7.4 km/h 85 % 0 mm
18:29 24.8 °C 22.1 °C 1010 hPa South 6.3 km/h 16.7 km/h 85 % 0 mm
18:34 24.8 °C 22.1 °C 1010 hPa SSE 3.4 km/h 7.4 km/h 85 % 0 mm
18:39 24.8 °C 22.1 °C 1010 hPa SSE 2.1 km/h 5.6 km/h 85 % 0 mm
18:44 24.7 °C 22.1 °C 1009.7 hPa South 6.8 km/h 14.8 km/h 85 % 0 mm
18:49 24.7 °C 22 °C 1010 hPa South 1 km/h 3.7 km/h 85 % 0 mm
18:54 24.6 °C 22.1 °C 1010.4 hPa SW 6.1 km/h 14.5 km/h 86 % 0 mm
18:59 24.6 °C 22.1 °C 1010.4 hPa SSW 4.3 km/h 11.1 km/h 86 % 0 mm
19:04 24.5 °C 22 °C 1010.4 hPa SW 5.1 km/h 11.1 km/h 86 % 0 mm
19:09 24.4 °C 21.9 °C 1010.4 hPa SE 4.7 km/h 9.3 km/h 86 % 0 mm
19:14 24.4 °C 22.1 °C 1010.7 hPa SE 6.4 km/h 14.8 km/h 87 % 0 mm
19:19 24.3 °C 22 °C 1010.4 hPa South 6 km/h 8 km/h 87 % 0 mm
19:24 24.2 °C 21.9 °C 1010.4 hPa SSW 5.3 km/h 14.8 km/h 87 % 0 mm
19:29 24.2 °C 22.1 °C 1010.4 hPa SW 5.8 km/h 9.3 km/h 88 % 0 mm
19:34 24.1 °C 21.9 °C 1010.4 hPa SSE 2.1 km/h 14.8 km/h 88 % 0 mm
19:39 24.1 °C 21.9 °C 1010.4 hPa South 2.6 km/h 11.1 km/h 88 % 0 mm
19:44 24 °C 21.9 °C 1010 hPa South 6.9 km/h 9.3 km/h 88 % 0 mm
19:49 23.9 °C 22 °C 1010 hPa SE 0.6 km/h 5.6 km/h 89 % 0 mm
19:54 23.9 °C 22 °C 1010 hPa SE 1.8 km/h 9.7 km/h 89 % 0 mm
19:59 23.9 °C 22 °C 1010 hPa SE 1.1 km/h 3.7 km/h 89 % 0 mm
20:04 23.9 °C 22 °C 1009.7 hPa South 3.4 km/h 7.4 km/h 89 % 0 mm
20:09 23.9 °C 22 °C 1010 hPa SW 3.2 km/h 7.4 km/h 89 % 0 mm
20:14 23.9 °C 21.9 °C 1009.7 hPa SSW 1.6 km/h 5.6 km/h 89 % 0 mm
20:19 23.8 °C 21.9 °C 1010 hPa SSW 3.4 km/h 9.3 km/h 89 % 0 mm
20:24 23.8 °C 21.9 °C 1010.4 hPa SSW 7.1 km/h 13 km/h 89 % 0 mm
20:29 23.8 °C 21.9 °C 1010.4 hPa SSW 7.1 km/h 11.1 km/h 89 % 0 mm
20:34 23.8 °C 21.8 °C 1010.4 hPa West 6.8 km/h 8 km/h 89 % 0 mm
20:39 23.8 °C 21.8 °C 1010.4 hPa SW 2.6 km/h 6.4 km/h 89 % 0 mm
20:44 23.7 °C 21.6 °C 1010 hPa Calm   3.7 km/h 88 % 0 mm
20:50 23.6 °C 21.5 °C 1010.4 hPa SW 0.8 km/h 7.4 km/h 88 % 0 mm
20:55 23.6 °C 21.4 °C 1010 hPa WSW 3.2 km/h 11.1 km/h 88 % 0 mm
21:00 23.5 °C 21.4 °C 1010 hPa WSW 0.3 km/h 1.9 km/h 88 % 0 mm
21:05 23.4 °C 21.2 °C 1010 hPa SSW 1.1 km/h 5.6 km/h 87 % 0 mm
21:10 23.3 °C 21.1 °C 1010 hPa SSW 0.5 km/h 3.7 km/h 87 % 0 mm
21:15 23.3 °C 21 °C 1010 hPa Calm     87 % 0 mm
21:20 23.2 °C 20.7 °C 1010 hPa SW 0.3 km/h 1.9 km/h 86 % 0 mm
21:30 23.1 °C 20.7 °C 1010 hPa SW 0.3 km/h 3.7 km/h 86 % 0 mm
21:35 23.1 °C 20.6 °C 1010 hPa SW 0.2 km/h 3.7 km/h 86 % 0 mm
21:40 23.1 °C 20.6 °C 1010 hPa Calm   1.9 km/h 86 % 0 mm
21:45 23 °C 20.6 °C 1010.4 hPa Calm   1.9 km/h 86 % 0 mm
21:50 23 °C 20.6 °C 1010.7 hPa WSW 0.5 km/h 3.2 km/h 86 % 0 mm
21:55 22.9 °C 20.5 °C 1010.4 hPa WSW 0.8 km/h 5.6 km/h 86 % 0 mm
22:00 22.9 °C 20.4 °C 1010.4 hPa WSW 1.3 km/h 3.2 km/h 86 % 0 mm
22:05 22.8 °C 20.4 °C 1010.7 hPa SW 0.8 km/h 3.7 km/h 86 % 0 mm
22:10 22.8 °C 20.4 °C 1010.7 hPa SSW 2.1 km/h 5.6 km/h 86 % 0 mm
22:15 22.8 °C 20.4 °C 1010.7 hPa South 2.1 km/h 4.8 km/h 86 % 0 mm
22:20 22.8 °C 20.4 °C 1011.1 hPa SSW 0.8 km/h 3.2 km/h 86 % 0 mm
22:25 22.8 °C 20.4 °C 1011.1 hPa SSW 2.6 km/h 5.6 km/h 86 % 0 mm
22:30 22.8 °C 20.4 °C 1011.1 hPa SW 1.8 km/h 5.6 km/h 86 % 0 mm
22:33 22.8 °C 20.3 °C 1011.1 hPa SSW 2.4 km/h 5.6 km/h 86 % 0 mm
22:39 22.8 °C 20.3 °C 1011.1 hPa SW 0.5 km/h 1.9 km/h 86 % 0 mm
22:44 22.7 °C 20.4 °C 1011.1 hPa WSW 0.3 km/h 3.7 km/h 87 % 0 mm
22:49 22.7 °C 20.4 °C 1011.1 hPa WSW 1.4 km/h 5.6 km/h 87 % 0 mm
22:54 22.6 °C 20.3 °C 1011.1 hPa SW 1.3 km/h 3.7 km/h 87 % 0 mm
22:59 22.6 °C 20.3 °C 1011.1 hPa Calm     87 % 0 mm
23:04 22.5 °C 20.2 °C 1011.1 hPa WSW 0.5 km/h 1.9 km/h 87 % 0 mm
23:09 22.4 °C 20.3 °C 1011.1 hPa SW 0.3 km/h 1.9 km/h 88 % 0 mm
23:14 22.3 °C 20.2 °C 1011.1 hPa WSW 4.3 km/h 5.6 km/h 88 % 0 mm
23:19 22.3 °C 20.2 °C 1011.1 hPa SW 2.6 km/h 5.6 km/h 88 % 0 mm
23:24 22.3 °C 20.2 °C 1011.1 hPa SW 1.1 km/h 9.7 km/h 88 % 0 mm
23:29 22.2 °C 20.3 °C 1011.1 hPa WSW 2.1 km/h 5.6 km/h 89 % 0 mm
23:34 22.2 °C 20.3 °C 1011.1 hPa SW 1.9 km/h 8 km/h 89 % 0 mm
23:40 22.2 °C 20.3 °C 1011.1 hPa WSW 0.2 km/h   89 % 0 mm
23:45 22.2 °C 20.3 °C 1011.1 hPa WSW 0.2 km/h 1.9 km/h 89 % 0 mm
23:49 22.1 °C 20.2 °C 1011.1 hPa SSW 2.3 km/h 7.4 km/h 89 % 0 mm
23:55 22.1 °C 20.2 °C 1011.1 hPa SSW 1 km/h 3.7 km/h 89 % 0 mm
Crab Meadow Weather
Compliments of Weather Underground - 3 mb

Script developed by  Jim McMurry - jmcmurry@mwt.net Adapted for the template by  Wim van der Kuil - Leuven-Template.eu

Weather Terms: Dense Fog Advisory - Widespread dense fog reducing visibility to less than 1/4 mile.